| time (UTC) | temp F | wind direction | speed MPH | gust MPH | rain 1hr in | rain 24hr in | rain mn in | humidity % | barometer mb |
| 20260906165348 | 55 | 133 | 0.0 | 0.0 | 0.00 | 0.38 | 0.37 | 93 | 1011.6 |
| 20260906164348 | 55 | 133 | 0.0 | 0.0 | 0.00 | 0.39 | 0.37 | 93 | 1011.7 |
| 20260906163348 | 55 | 133 | 0.0 | 0.0 | 0.00 | 0.39 | 0.37 | 93 | 1011.7 |
| 20260906162318 | 55 | 133 | 0.0 | 0.0 | 0.00 | 0.39 | 0.37 | 93 | 1011.7 |
| 20260906161318 | 55 | 130 | 0.0 | 0.0 | 0.00 | 0.39 | 0.37 | 93 | 1011.7 |
| 20260906160318 | 55 | 130 | 0.0 | 0.0 | 0.00 | 0.39 | 0.37 | 93 | 1011.7 |
| 20260906155318 | 56 | 130 | 0.0 | 0.0 | 0.01 | 0.40 | 0.37 | 93 | 1011.6 |
| 20260906154248 | 56 | 130 | 0.0 | 0.0 | 0.02 | 0.53 | 0.37 | 93 | 1011.6 |
| 20260906153218 | 55 | 130 | 0.0 | 0.0 | 0.02 | 0.57 | 0.37 | 93 | 1011.6 |
| 20260906152218 | 55 | 130 | 0.0 | 0.0 | 0.02 | 0.59 | 0.37 | 93 | 1011.7 |
| 20260906151148 | 55 | 130 | 0.0 | 0.0 | 0.02 | 0.60 | 0.37 | 93 | 1011.6 |
| 20260906150148 | 55 | 37 | 0.0 | 0.0 | 0.02 | 0.65 | 0.37 | 93 | 1011.6 |
| 20260906145148 | 55 | 156 | 0.0 | 0.0 | 0.02 | 0.71 | 0.36 | 93 | 1011.5 |
| 20260906144148 | 55 | 145 | 0.0 | 0.0 | 0.00 | 0.80 | 0.35 | 93 | 1011.5 |
| 20260906143148 | 55 | 144 | 0.0 | 0.0 | 0.00 | 0.80 | 0.35 | 93 | 1011.5 |
| 20260906142118 | 55 | 178 | 0.0 | 0.0 | 0.00 | 0.80 | 0.35 | 93 | 1011.5 |
| 20260906141118 | 55 | 178 | 0.0 | 0.0 | 0.00 | 0.80 | 0.35 | 93 | 1011.4 |
| 20260906140118 | 55 | 178 | 0.0 | 0.0 | 0.00 | 0.83 | 0.35 | 94 | 1011.3 |
| 20260906135118 | 55 | 178 | 0.0 | 0.0 | 0.00 | 0.84 | 0.35 | 93 | 1011.2 |
| 20260906134117 | 54 | 147 | 0.0 | 0.0 | 0.00 | 0.84 | 0.35 | 94 | 1011.2 |
| 20260906133117 | 54 | 149 | 0.0 | 0.0 | 0.00 | 0.84 | 0.35 | 93 | 1011.3 |
| 20260906132117 | 54 | 149 | 0.0 | 0.0 | 0.00 | 0.84 | 0.35 | 94 | 1011.3 |
| 20260906131117 | 54 | 149 | 0.0 | 0.0 | 0.00 | 0.84 | 0.35 | 93 | 1011.3 |
| 20260906130117 | 54 | 151 | 0.0 | 0.0 | 0.00 | 0.84 | 0.35 | 93 | 1011.3 |
| 20260906125117 | 54 | 151 | 0.0 | 0.0 | 0.00 | 0.84 | 0.35 | 94 | 1011.2 |
| 20260906124117 | 54 | 150 | 0.0 | 0.0 | 0.00 | 0.84 | 0.35 | 94 | 1011.1 |
| 20260906123117 | 54 | 134 | 0.0 | 0.0 | 0.00 | 0.84 | 0.35 | 94 | 1011.1 |
| 20260906122117 | 53 | 134 | 0.0 | 0.0 | 0.00 | 0.84 | 0.35 | 94 | 1011.2 |
| 20260906121117 | 53 | 134 | 0.0 | 0.0 | 0.00 | 0.84 | 0.35 | 93 | 1011.1 |
| 20260906120117 | 54 | 134 | 0.0 | 0.0 | 0.00 | 0.84 | 0.35 | 93 | 1011.1 |
| 20260906115117 | 54 | 132 | 0.0 | 0.0 | 0.00 | 0.84 | 0.35 | 94 | 1011.0 |
| 20260906114117 | 54 | 132 | 0.0 | 0.0 | 0.00 | 0.84 | 0.35 | 94 | 1011.0 |
| 20260906113047 | 54 | 132 | 0.0 | 0.0 | 0.01 | 0.84 | 0.35 | 94 | 1010.8 |
| 20260906112047 | 53 | 132 | 0.0 | 0.0 | 0.01 | 0.84 | 0.35 | 94 | 1010.7 |
| 20260906111047 | 53 | 132 | 0.0 | 0.0 | 0.02 | 0.84 | 0.35 | 94 | 1010.7 |
| 20260906110047 | 53 | 133 | 0.0 | 0.0 | 0.06 | 0.84 | 0.35 | 94 | 1010.7 |
| 20260906105047 | 53 | 132 | 0.0 | 0.0 | 0.08 | 0.84 | 0.35 | 94 | 1010.6 |
| 20260906104017 | 53 | 215 | 0.0 | 0.0 | 0.12 | 0.84 | 0.35 | 94 | 1010.6 |
| 20260906103017 | 53 | 213 | 0.0 | 0.0 | 0.12 | 0.83 | 0.34 | 94 | 1010.6 |
| 20260906101947 | 53 | 213 | 0.0 | 0.0 | 0.13 | 0.83 | 0.34 | 94 | 1010.5 |
| 20260906100947 | 53 | 213 | 0.0 | 0.0 | 0.20 | 0.83 | 0.33 | 94 | 1010.5 |
| 20260906095917 | 53 | 213 | 0.0 | 0.0 | 0.23 | 0.79 | 0.29 | 94 | 1010.3 |
| 20260906094917 | 53 | 191 | 0.0 | 0.0 | 0.20 | 0.76 | 0.27 | 93 | 1010.3 |
| 20260906093917 | 53 | 219 | 0.0 | 0.0 | 0.17 | 0.72 | 0.23 | 93 | 1010.2 |
| 20260906092847 | 54 | 219 | 0.0 | 0.0 | 0.16 | 0.72 | 0.22 | 93 | 1010.1 |
| 20260906091847 | 54 | 219 | 0.0 | 0.0 | 0.14 | 0.70 | 0.20 | 94 | 1010.1 |
| 20260906090847 | 53 | 220 | 0.0 | 0.0 | 0.06 | 0.62 | 0.13 | 94 | 1010.0 |
| 20260906085847 | 53 | 217 | 0.0 | 0.0 | 0.00 | 0.56 | 0.06 | 93 | 1009.9 |
| 20260906084847 | 53 | 217 | 0.0 | 0.0 | 0.00 | 0.56 | 0.06 | 93 | 1009.8 |
| 20260906083817 | 53 | 217 | 0.0 | 0.0 | 0.00 | 0.56 | 0.06 | 93 | 1009.8 |
| 20260906082817 | 53 | 217 | 0.0 | 0.0 | 0.01 | 0.56 | 0.06 | 93 | 1009.8 |
| 20260906081817 | 53 | 224 | 0.0 | 0.0 | 0.02 | 0.56 | 0.06 | 94 | 1009.7 |
| 20260906080817 | 53 | 202 | 0.0 | 0.0 | 0.02 | 0.56 | 0.06 | 94 | 1009.7 |
| 20260906075817 | 53 | 199 | 0.0 | 0.0 | 0.02 | 0.56 | 0.06 | 93 | 1009.6 |
| 20260906074817 | 53 | 199 | 0.0 | 0.0 | 0.02 | 0.56 | 0.06 | 93 | 1009.5 |
| 20260906073817 | 53 | 199 | 0.0 | 0.0 | 0.03 | 0.56 | 0.06 | 93 | 1009.5 |
| 20260906072747 | 53 | 196 | 0.0 | 0.0 | 0.02 | 0.55 | 0.06 | 93 | 1009.5 |
| 20260906071746 | 53 | 309 | 0.0 | 0.0 | 0.01 | 0.54 | 0.04 | 93 | 1009.3 |
| 20260906070746 | 53 | 345 | 0.0 | 0.0 | 0.01 | 0.54 | 0.04 | 93 | 1009.3 |
| 20260906065746 | 52 | 345 | 0.0 | 0.0 | 0.01 | 0.54 | 0.04 | 94 | 1009.1 |
| 20260906064746 | 52 | 345 | 0.0 | 0.0 | 0.01 | 0.54 | 0.04 | 93 | 1009.0 |
| 20260906063716 | 52 | 345 | 0.0 | 0.0 | 0.00 | 0.53 | 0.03 | 93 | 1008.9 |
| 20260906062716 | 52 | 346 | 0.0 | 0.0 | 0.00 | 0.53 | 0.03 | 93 | 1008.9 |
| 20260906061646 | 52 | 346 | 0.0 | 0.0 | 0.01 | 0.53 | 0.03 | 93 | 1008.9 |
| 20260906060646 | 52 | 346 | 0.0 | 0.0 | 0.03 | 0.53 | 0.03 | 93 | 1009.0 |
| 20260906055616 | 52 | 346 | 0.0 | 0.0 | 0.03 | 0.53 | 0.03 | 93 | 1008.9 |
| 20260906054616 | 52 | 346 | 0.0 | 0.0 | 0.03 | 0.53 | 0.03 | 93 | 1009.0 |
| 20260906053616 | 52 | 346 | 0.0 | 0.0 | 0.03 | 0.53 | 0.03 | 93 | 1009.0 |
| 20260906052616 | 52 | 346 | 0.0 | 0.0 | 0.03 | 0.53 | 0.03 | 92 | 1008.9 |
| 20260906051616 | 52 | 346 | 0.0 | 0.0 | 0.02 | 0.52 | 0.02 | 92 | 1008.7 |
| 20260906050546 | 53 | 345 | 0.0 | 0.0 | 0.00 | 0.50 | 0.00 | 93 | 1008.7 |
| 20260906045546 | 52 | 345 | 0.0 | 0.0 | 0.00 | 0.50 | 0.00 | 93 | 1008.7 |
| 20260906044546 | 52 | 345 | 0.0 | 0.0 | 0.00 | 0.50 | 0.00 | 93 | 1008.6 |
| 20260906043546 | 52 | 345 | 0.0 | 0.0 | 0.00 | 0.50 | 0.00 | 93 | 1008.6 |
| 20260906042516 | 52 | 345 | 0.0 | 0.0 | 0.00 | 0.50 | 0.00 | 93 | 1008.5 |
| 20260906041516 | 52 | 345 | 0.0 | 0.0 | 0.00 | 0.50 | 0.00 | 93 | 1008.4 |
| 20260906040516 | 52 | 345 | 0.0 | 0.0 | 0.00 | 0.50 | 0.00 | 93 | 1008.3 |
| 20260906035516 | 52 | 345 | 0.0 | 0.0 | 0.00 | 0.50 | 0.00 | 93 | 1008.3 |
| 20260906034516 | 52 | 345 | 0.0 | 0.0 | 0.00 | 0.50 | 0.00 | 93 | 1008.3 |
| 20260906033516 | 52 | 345 | 0.0 | 0.0 | 0.00 | 0.50 | 0.00 | 93 | 1008.3 |
| 20260906032516 | 52 | 345 | 0.0 | 0.0 | 0.00 | 0.50 | 0.00 | 93 | 1008.3 |
| 20260906031516 | 52 | 345 | 0.0 | 0.0 | 0.00 | 0.50 | 0.00 | 93 | 1008.3 |
| 20260906030446 | 52 | 345 | 0.0 | 0.0 | 0.00 | 0.50 | 0.00 | 93 | 1008.3 |
| 20260906025446 | 52 | 345 | 0.0 | 0.0 | 0.00 | 0.50 | 0.00 | 93 | 1008.3 |
| 20260906024416 | 52 | 304 | 0.0 | 0.0 | 0.00 | 0.50 | 0.00 | 94 | 1008.2 |
| 20260906023416 | 52 | 304 | 0.0 | 0.0 | 0.00 | 0.50 | 0.00 | 93 | 1008.1 |
| 20260906022346 | 52 | 304 | 0.0 | 0.0 | 0.00 | 0.50 | 0.00 | 93 | 1008.1 |
| 20260906021346 | 52 | 304 | 0.0 | 0.0 | 0.00 | 0.50 | 0.00 | 94 | 1008.0 |
| 20260906020346 | 52 | 304 | 0.0 | 0.0 | 0.00 | 0.50 | 0.00 | 94 | 1007.9 |
| 20260906015346 | 52 | 304 | 0.0 | 0.0 | 0.00 | 0.50 | 0.00 | 94 | 1007.9 |
| 20260906014346 | 52 | 304 | 0.0 | 0.0 | 0.00 | 0.50 | 0.00 | 94 | 1007.9 |
| 20260906013316 | 52 | 304 | 0.0 | 0.0 | 0.00 | 0.50 | 0.00 | 94 | 1007.8 |
| 20260906012316 | 52 | 304 | 0.0 | 0.0 | 0.00 | 0.50 | 0.00 | 94 | 1007.8 |
| 20260906011316 | 52 | 304 | 0.0 | 0.0 | 0.00 | 0.50 | 0.00 | 94 | 1007.9 |
| 20260906010246 | 51 | 317 | 0.0 | 0.0 | 0.00 | 0.50 | 0.00 | 94 | 1007.8 |
| 20260906005246 | 51 | 344 | 0.0 | 0.0 | 0.00 | 0.50 | 0.00 | 94 | 1007.8 |
| 20260906004246 | 51 | 355 | 0.0 | 0.0 | 0.00 | 0.50 | 0.00 | 94 | 1007.8 |
| 20260906003246 | 51 | 213 | 0.0 | 0.0 | 0.00 | 0.50 | 0.00 | 94 | 1007.6 |
| 20260906002246 | 51 | 213 | 0.0 | 0.0 | 0.00 | 0.50 | 0.00 | 94 | 1007.5 |
| 20260906001245 | 51 | 178 | 0.0 | 0.0 | 0.00 | 0.50 | 0.00 | 94 | 1007.4 |
| 20260906000245 | 50 | 157 | 0.0 | 0.0 | 0.00 | 0.50 | 0.00 | 94 | 1007.3 |
| 20260905235245 | 50 | 138 | 0.0 | 0.0 | 0.00 | 0.50 | 0.00 | 94 | 1007.2 |
| 20260905234245 | 50 | 236 | 0.0 | 0.0 | 0.00 | 0.50 | 0.00 | 94 | 1007.1 |
| 20260905233215 | 50 | 236 | 0.0 | 0.0 | 0.00 | 0.50 | 0.00 | 94 | 1007.0 |
| 20260905232215 | 50 | 236 | 0.0 | 0.0 | 0.00 | 0.50 | 0.00 | 94 | 1007.0 |
| 20260905231215 | 50 | 236 | 0.0 | 0.0 | 0.00 | 0.50 | 0.00 | 94 | 1006.7 |
| 20260905230145 | 50 | 236 | 0.0 | 0.0 | 0.00 | 0.50 | 0.00 | 94 | 1006.7 |
| 20260905225145 | 50 | 236 | 0.0 | 0.0 | 0.00 | 0.50 | 0.00 | 94 | 1006.6 |
| 20260905224115 | 50 | 178 | 0.0 | 0.0 | 0.00 | 0.50 | 0.00 | 94 | 1006.5 |
| 20260905223045 | 50 | 178 | 0.0 | 0.0 | 0.00 | 0.50 | 0.00 | 94 | 1006.4 |
| 20260905222015 | 50 | 178 | 0.0 | 0.0 | 0.00 | 0.50 | 0.00 | 94 | 1006.4 |
| 20260905221015 | 50 | 179 | 0.0 | 0.0 | 0.00 | 0.50 | 0.00 | 94 | 1006.4 |
| 20260905220015 | 50 | 178 | 0.0 | 0.0 | 0.00 | 0.50 | 0.00 | 94 | 1006.3 |
| 20260905215015 | 51 | 179 | 0.0 | 0.0 | 0.00 | 0.50 | 0.50 | 94 | 1006.1 |
| 20260905213945 | 51 | 178 | 0.0 | 0.0 | 0.00 | 0.50 | 0.50 | 94 | 1005.9 |
| 20260905212945 | 51 | 178 | 0.0 | 0.0 | 0.00 | 0.50 | 0.50 | 94 | 1005.8 |
| 20260905211945 | 51 | 178 | 0.0 | 0.0 | 0.00 | 0.50 | 0.50 | 94 | 1005.7 |
| 20260905210915 | 51 | 179 | 0.0 | 0.0 | 0.00 | 0.50 | 0.50 | 93 | 1005.6 |
| 20260905205845 | 52 | 179 | 0.0 | 0.0 | 0.00 | 0.50 | 0.50 | 94 | 1005.4 |
| 20260905204845 | 52 | 178 | 0.0 | 0.0 | 0.00 | 0.50 | 0.50 | 94 | 1005.4 |
| 20260905203845 | 52 | 178 | 0.0 | 0.0 | 0.00 | 0.50 | 0.50 | 93 | 1005.3 |
| 20260905202845 | 52 | 178 | 0.0 | 0.0 | 0.00 | 0.50 | 0.50 | 93 | 1005.3 |
| 20260905201815 | 52 | 178 | 0.0 | 0.0 | 0.00 | 0.50 | 0.50 | 94 | 1005.1 |
| 20260905200745 | 52 | 0 | 0.0 | 0.0 | 0.00 | 0.50 | 0.50 | 93 | 1005.1 |
| 20260905195715 | 53 | 0 | 0.0 | 0.0 | 0.00 | 0.50 | 0.50 | 93 | 1005.0 |
| 20260905194715 | 53 | 0 | 0.0 | 0.0 | 0.00 | 0.50 | 0.50 | 94 | 1004.9 |
| 20260905193715 | 53 | 0 | 0.0 | 0.0 | 0.00 | 0.50 | 0.50 | 94 | 1004.8 |
| 20260905192715 | 53 | 0 | 0.0 | 0.0 | 0.00 | 0.50 | 0.50 | 94 | 1004.9 |
| 20260905191645 | 53 | 0 | 0.0 | 0.0 | 0.00 | 0.50 | 0.50 | 94 | 1004.6 |
| 20260905190645 | 53 | 0 | 0.0 | 0.0 | 0.00 | 0.50 | 0.50 | 94 | 1004.6 |
| 20260905185615 | 53 | 0 | 0.0 | 0.0 | 0.00 | 0.50 | 0.50 | 94 | 1004.4 |
| 20260905184615 | 53 | 0 | 0.0 | 0.0 | 0.00 | 0.50 | 0.50 | 94 | 1004.3 |
| 20260905183615 | 53 | 0 | 0.0 | 0.0 | 0.00 | 0.50 | 0.50 | 94 | 1004.2 |
| 20260905182545 | 54 | 0 | 0.0 | 0.0 | 0.00 | 0.50 | 0.50 | 94 | 1004.1 |
| 20260905181545 | 54 | 0 | 0.0 | 0.0 | 0.00 | 0.50 | 0.50 | 94 | 1004.1 |
| 20260905180515 | 54 | 0 | 0.0 | 0.0 | 0.00 | 0.50 | 0.50 | 94 | 1004.0 |
| 20260905175515 | 54 | 163 | 0.0 | 0.0 | 0.01 | 0.50 | 0.50 | 93 | 1003.8 |
| 20260905174515 | 54 | 163 | 0.0 | 0.0 | 0.02 | 0.50 | 0.50 | 93 | 1003.7 |
| 20260905173445 | 55 | 163 | 0.0 | 0.0 | 0.02 | 0.50 | 0.50 | 93 | 1003.6 |
| 20260905172445 | 55 | 163 | 0.0 | 0.0 | 0.02 | 0.50 | 0.50 | 94 | 1003.6 |
| 20260905171445 | 55 | 163 | 0.0 | 0.0 | 0.02 | 0.50 | 0.50 | 93 | 1003.5 |
| 20260905170445 | 55 | 162 | 0.0 | 0.0 | 0.02 | 0.50 | 0.50 | 93 | 1003.3 |